| time (UTC) | temp F | wind direction | speed MPH | gust MPH | rain 1hr in | rain 24hr in | rain mn in | humidity % | barometer mb |
| 20260903205613 | 96 | 117 | 9.0 | 14.0 | 0.00 | 0.00 | 0.00 | 48 | 1011.5 |
| 20260903205112 | 96 | 111 | 6.0 | 8.0 | 0.00 | 0.00 | 0.00 | 49 | 1011.8 |
| 20260903204608 | 97 | 109 | 6.0 | 9.0 | 0.00 | 0.00 | 0.00 | 47 | 1011.8 |
| 20260903204103 | 98 | 120 | 8.0 | 11.0 | 0.00 | 0.00 | 0.00 | 47 | 1011.9 |
| 20260903203559 | 97 | 198 | 5.0 | 6.0 | 0.00 | 0.00 | 0.00 | 47 | 1012.0 |
| 20260903203054 | 96 | 249 | 4.0 | 7.0 | 0.00 | 0.00 | 0.00 | 48 | 1012.1 |
| 20260903202550 | 95 | 194 | 10.0 | 15.0 | 0.00 | 0.00 | 0.00 | 50 | 1012.1 |
| 20260903202045 | 96 | 194 | 12.0 | 15.0 | 0.00 | 0.00 | 0.00 | 48 | 1012.3 |
| 20260903201540 | 95 | 69 | 3.0 | 3.0 | 0.00 | 0.00 | 0.00 | 49 | 1012.2 |
| 20260903201039 | 95 | 197 | 4.0 | 5.0 | 0.00 | 0.00 | 0.00 | 49 | 1012.4 |
| 20260903200533 | 95 | 114 | 7.0 | 9.0 | 0.00 | 0.00 | 0.00 | 50 | 1012.4 |
| 20260903200023 | 96 | 145 | 2.0 | 5.0 | 0.00 | 0.00 | 0.00 | 49 | 1012.4 |
| 20260903195519 | 96 | 139 | 5.0 | 6.0 | 0.00 | 0.00 | 0.00 | 49 | 1012.5 |
| 20260903195014 | 96 | 107 | 5.0 | 8.0 | 0.00 | 0.00 | 0.00 | 49 | 1012.4 |
| 20260903194510 | 96 | 92 | 3.0 | 5.0 | 0.00 | 0.00 | 0.00 | 49 | 1012.4 |
| 20260903194004 | 95 | 101 | 3.0 | 7.0 | 0.00 | 0.00 | 0.00 | 50 | 1012.7 |
| 20260903193500 | 95 | 106 | 3.0 | 6.0 | 0.00 | 0.00 | 0.00 | 52 | 1012.4 |
| 20260903192955 | 95 | 319 | 4.0 | 6.0 | 0.00 | 0.00 | 0.00 | 51 | 1012.7 |
| 20260903192453 | 95 | 86 | 3.0 | 5.0 | 0.00 | 0.00 | 0.00 | 51 | 1012.6 |
| 20260903191947 | 95 | 90 | 4.0 | 5.0 | 0.00 | 0.00 | 0.00 | 50 | 1013.1 |
| 20260903191444 | 95 | 259 | 2.0 | 2.0 | 0.00 | 0.00 | 0.00 | 51 | 1013.3 |
| 20260903190942 | 94 | 79 | 4.0 | 7.0 | 0.00 | 0.00 | 0.00 | 51 | 1013.3 |
| 20260903190437 | 95 | 282 | 5.0 | 6.0 | 0.00 | 0.00 | 0.00 | 51 | 1013.4 |
| 20260903185936 | 95 | 142 | 4.0 | 5.0 | 0.00 | 0.00 | 0.00 | 51 | 1013.5 |
| 20260903185432 | 95 | 212 | 4.0 | 5.0 | 0.00 | 0.00 | 0.00 | 51 | 1013.4 |
| 20260903184927 | 94 | 153 | 5.0 | 7.0 | 0.00 | 0.00 | 0.00 | 52 | 1013.7 |
| 20260903184425 | 94 | 126 | 5.0 | 7.0 | 0.00 | 0.00 | 0.00 | 52 | 1013.7 |
| 20260903183924 | 94 | 122 | 8.0 | 11.0 | 0.00 | 0.00 | 0.00 | 52 | 1013.7 |
| 20260903183419 | 94 | 79 | 4.0 | 6.0 | 0.00 | 0.00 | 0.00 | 52 | 1013.8 |
| 20260903182918 | 94 | 123 | 10.0 | 13.0 | 0.00 | 0.00 | 0.00 | 53 | 1013.8 |
| 20260903182417 | 94 | 195 | 5.0 | 6.0 | 0.00 | 0.00 | 0.00 | 52 | 1014.0 |
| 20260903181912 | 94 | 227 | 3.0 | 5.0 | 0.00 | 0.00 | 0.00 | 51 | 1014.0 |
| 20260903181407 | 93 | 250 | 1.0 | 2.0 | 0.00 | 0.00 | 0.00 | 53 | 1014.1 |
| 20260903180906 | 92 | 268 | 3.0 | 3.0 | 0.00 | 0.00 | 0.00 | 53 | 1014.0 |
| 20260903180401 | 93 | 243 | 7.0 | 8.0 | 0.00 | 0.00 | 0.00 | 53 | 1014.3 |
| 20260903175900 | 93 | 196 | 7.0 | 8.0 | 0.00 | 0.00 | 0.00 | 51 | 1014.2 |
| 20260903175355 | 94 | 276 | 3.0 | 6.0 | 0.00 | 0.00 | 0.00 | 51 | 1014.5 |
| 20260903174849 | 94 | 249 | 2.0 | 2.0 | 0.00 | 0.00 | 0.00 | 50 | 1014.4 |
| 20260903174344 | 94 | 221 | 5.0 | 7.0 | 0.00 | 0.00 | 0.00 | 53 | 1014.6 |
| 20260903173838 | 93 | 216 | 7.0 | 9.0 | 0.00 | 0.00 | 0.00 | 53 | 1014.4 |
| 20260903173334 | 92 | 227 | 8.0 | 10.0 | 0.00 | 0.00 | 0.00 | 55 | 1014.5 |
| 20260903172830 | 92 | 231 | 9.0 | 11.0 | 0.00 | 0.00 | 0.00 | 53 | 1014.4 |
| 20260903172324 | 91 | 253 | 8.0 | 10.0 | 0.00 | 0.00 | 0.00 | 53 | 1014.4 |
| 20260903171819 | 92 | 244 | 6.0 | 7.0 | 0.00 | 0.00 | 0.00 | 53 | 1014.3 |
| 20260903171315 | 92 | 225 | 7.0 | 9.0 | 0.00 | 0.00 | 0.00 | 55 | 1014.5 |
| 20260903170809 | 91 | 191 | 9.0 | 10.0 | 0.00 | 0.00 | 0.00 | 54 | 1014.6 |
| 20260903170303 | 91 | 215 | 6.0 | 7.0 | 0.00 | 0.00 | 0.00 | 55 | 1014.5 |
| 20260903165802 | 91 | 202 | 8.0 | 9.0 | 0.00 | 0.00 | 0.00 | 56 | 1014.5 |
| 20260903165257 | 91 | 214 | 7.0 | 8.0 | 0.00 | 0.00 | 0.00 | 56 | 1014.7 |
| 20260903164751 | 89 | 160 | 9.0 | 11.0 | 0.00 | 0.00 | 0.00 | 58 | 1014.7 |
| 20260903164247 | 89 | 201 | 9.0 | 13.0 | 0.00 | 0.00 | 0.00 | 59 | 1014.7 |
| 20260903163746 | 90 | 217 | 9.0 | 10.0 | 0.00 | 0.00 | 0.00 | 59 | 1014.7 |
| 20260903163243 | 89 | 229 | 7.0 | 9.0 | 0.00 | 0.00 | 0.00 | 60 | 1014.8 |
| 20260903162739 | 88 | 257 | 6.0 | 9.0 | 0.00 | 0.00 | 0.00 | 61 | 1014.7 |
| 20260903162235 | 88 | 215 | 10.0 | 11.0 | 0.00 | 0.00 | 0.00 | 63 | 1014.6 |
| 20260903161730 | 87 | 162 | 7.0 | 11.0 | 0.00 | 0.00 | 0.00 | 62 | 1014.8 |
| 20260903161226 | 87 | 205 | 15.0 | 17.0 | 0.00 | 0.00 | 0.00 | 63 | 1014.6 |
| 20260903160721 | 86 | 200 | 15.0 | 16.0 | 0.00 | 0.00 | 0.00 | 65 | 1014.7 |
| 20260903160220 | 86 | 190 | 9.0 | 10.0 | 0.00 | 0.00 | 0.00 | 67 | 1014.5 |
| 20260903155719 | 87 | 186 | 12.0 | 16.0 | 0.00 | 0.00 | 0.00 | 66 | 1014.7 |
| 20260903155214 | 87 | 176 | 12.0 | 13.0 | 0.00 | 0.00 | 0.00 | 66 | 1014.8 |
| 20260903154709 | 87 | 173 | 13.0 | 14.0 | 0.00 | 0.00 | 0.00 | 68 | 1014.6 |
| 20260903154206 | 86 | 206 | 9.0 | 13.0 | 0.00 | 0.00 | 0.00 | 70 | 1014.8 |
| 20260903153701 | 85 | 202 | 7.0 | 9.0 | 0.00 | 0.00 | 0.00 | 72 | 1014.7 |
| 20260903153157 | 86 | 218 | 13.0 | 16.0 | 0.00 | 0.00 | 0.00 | 72 | 1014.4 |
| 20260903152653 | 85 | 174 | 11.0 | 13.0 | 0.00 | 0.00 | 0.00 | 73 | 1014.8 |
| 20260903152149 | 85 | 216 | 9.0 | 10.0 | 0.00 | 0.00 | 0.00 | 74 | 1014.7 |
| 20260903151649 | 84 | 218 | 6.0 | 11.0 | 0.00 | 0.00 | 0.00 | 76 | 1014.8 |
| 20260903151148 | 83 | 209 | 10.0 | 11.0 | 0.00 | 0.00 | 0.00 | 76 | 1014.4 |
| 20260903150643 | 84 | 207 | 7.0 | 7.0 | 0.00 | 0.00 | 0.00 | 76 | 1014.5 |
| 20260903150138 | 84 | 240 | 8.0 | 11.0 | 0.00 | 0.00 | 0.00 | 75 | 1014.6 |
| 20260903145637 | 84 | 218 | 10.0 | 13.0 | 0.00 | 0.00 | 0.00 | 76 | 1014.7 |
| 20260903145132 | 84 | 221 | 13.0 | 16.0 | 0.00 | 0.00 | 0.00 | 76 | 1014.7 |
| 20260903144631 | 83 | 192 | 9.0 | 10.0 | 0.00 | 0.00 | 0.00 | 77 | 1014.7 |
| 20260903144128 | 83 | 228 | 7.0 | 9.0 | 0.00 | 0.00 | 0.00 | 78 | 1014.7 |
| 20260903143623 | 83 | 178 | 11.0 | 13.0 | 0.00 | 0.00 | 0.00 | 79 | 1014.5 |
| 20260903143114 | 82 | 235 | 7.0 | 8.0 | 0.00 | 0.00 | 0.00 | 79 | 1014.7 |
| 20260903142609 | 82 | 206 | 7.0 | 10.0 | 0.00 | 0.00 | 0.00 | 80 | 1014.7 |
| 20260903142106 | 82 | 214 | 12.0 | 14.0 | 0.00 | 0.00 | 0.00 | 80 | 1014.7 |
| 20260903141601 | 82 | 210 | 15.0 | 20.0 | 0.00 | 0.00 | 0.00 | 81 | 1014.5 |
| 20260903141056 | 81 | 189 | 14.0 | 16.0 | 0.00 | 0.00 | 0.00 | 82 | 1014.5 |
| 20260903140552 | 82 | 214 | 11.0 | 15.0 | 0.00 | 0.00 | 0.00 | 82 | 1014.7 |
| 20260903140047 | 81 | 197 | 10.0 | 13.0 | 0.00 | 0.00 | 0.00 | 83 | 1014.6 |
| 20260903135542 | 81 | 199 | 11.0 | 14.0 | 0.00 | 0.00 | 0.00 | 83 | 1014.5 |
| 20260903135037 | 81 | 236 | 12.0 | 14.0 | 0.00 | 0.00 | 0.00 | 84 | 1014.6 |
| 20260903134537 | 80 | 232 | 12.0 | 15.0 | 0.00 | 0.00 | 0.00 | 84 | 1014.6 |
| 20260903134033 | 80 | 241 | 16.0 | 20.0 | 0.00 | 0.00 | 0.00 | 84 | 1014.6 |
| 20260903133530 | 80 | 216 | 7.0 | 9.0 | 0.00 | 0.00 | 0.00 | 86 | 1014.7 |
| 20260903133025 | 80 | 244 | 10.0 | 13.0 | 0.00 | 0.00 | 0.00 | 86 | 1014.7 |
| 20260903132520 | 80 | 206 | 9.0 | 10.0 | 0.00 | 0.00 | 0.00 | 86 | 1014.5 |
| 20260903132015 | 80 | 204 | 6.0 | 8.0 | 0.00 | 0.00 | 0.00 | 87 | 1014.9 |
| 20260903131510 | 80 | 187 | 8.0 | 9.0 | 0.00 | 0.00 | 0.00 | 87 | 1014.7 |
| 20260903131009 | 79 | 206 | 10.0 | 13.0 | 0.00 | 0.00 | 0.00 | 87 | 1014.7 |
| 20260903130504 | 79 | 192 | 11.0 | 13.0 | 0.00 | 0.00 | 0.00 | 88 | 1014.5 |
| 20260903130004 | 79 | 228 | 7.0 | 9.0 | 0.00 | 0.00 | 0.00 | 88 | 1014.7 |
| 20260903125502 | 79 | 181 | 7.0 | 9.0 | 0.00 | 0.00 | 0.00 | 89 | 1014.5 |
| 20260903124957 | 78 | 225 | 7.0 | 9.0 | 0.00 | 0.00 | 0.00 | 89 | 1014.7 |
| 20260903124452 | 78 | 196 | 7.0 | 8.0 | 0.00 | 0.00 | 0.00 | 89 | 1014.6 |
| 20260903123951 | 78 | 212 | 8.0 | 11.0 | 0.00 | 0.00 | 0.00 | 90 | 1014.5 |
| 20260903123446 | 78 | 224 | 9.0 | 10.0 | 0.00 | 0.00 | 0.00 | 90 | 1014.2 |
| 20260903122944 | 78 | 216 | 8.0 | 9.0 | 0.00 | 0.00 | 0.00 | 90 | 1014.3 |
| 20260903122438 | 78 | 211 | 9.0 | 10.0 | 0.00 | 0.00 | 0.00 | 90 | 1014.1 |
| 20260903121937 | 78 | 196 | 9.0 | 10.0 | 0.00 | 0.00 | 0.00 | 90 | 1014.2 |
| 20260903121432 | 78 | 201 | 9.0 | 10.0 | 0.00 | 0.00 | 0.00 | 90 | 1014.2 |
| 20260903120929 | 78 | 164 | 9.0 | 10.0 | 0.00 | 0.00 | 0.00 | 90 | 1014.4 |
| 20260903120427 | 78 | 239 | 6.0 | 8.0 | 0.00 | 0.00 | 0.00 | 90 | 1014.1 |
| 20260903115926 | 78 | 223 | 10.0 | 11.0 | 0.00 | 0.00 | 0.00 | 90 | 1014.3 |
| 20260903115426 | 78 | 182 | 9.0 | 11.0 | 0.00 | 0.00 | 0.00 | 90 | 1014.3 |
| 20260903114921 | 78 | 183 | 7.0 | 8.0 | 0.00 | 0.00 | 0.00 | 90 | 1014.2 |
| 20260903114417 | 78 | 223 | 10.0 | 11.0 | 0.00 | 0.00 | 0.00 | 90 | 1014.2 |
| 20260903113912 | 78 | 172 | 9.0 | 11.0 | 0.00 | 0.00 | 0.00 | 90 | 1014.1 |
| 20260903113408 | 78 | 205 | 9.0 | 10.0 | 0.00 | 0.00 | 0.00 | 90 | 1014.2 |
| 20260903112903 | 78 | 215 | 10.0 | 11.0 | 0.00 | 0.00 | 0.00 | 90 | 1014.1 |
| 20260903112359 | 78 | 185 | 11.0 | 14.0 | 0.00 | 0.00 | 0.00 | 90 | 1014.4 |
| 20260903111858 | 78 | 233 | 7.0 | 10.0 | 0.00 | 0.00 | 0.00 | 90 | 1014.1 |
| 20260903111357 | 78 | 202 | 9.0 | 10.0 | 0.00 | 0.00 | 0.00 | 90 | 1014.0 |
| 20260903110854 | 78 | 194 | 8.0 | 10.0 | 0.00 | 0.00 | 0.00 | 90 | 1014.1 |
| 20260903110349 | 78 | 215 | 8.0 | 9.0 | 0.00 | 0.00 | 0.00 | 90 | 1014.0 |
| 20260903105844 | 78 | 223 | 9.0 | 10.0 | 0.00 | 0.00 | 0.00 | 90 | 1013.9 |
| 20260903105339 | 78 | 231 | 10.0 | 13.0 | 0.00 | 0.00 | 0.00 | 90 | 1013.9 |
| 20260903104838 | 78 | 234 | 8.0 | 10.0 | 0.00 | 0.00 | 0.00 | 90 | 1013.8 |
| 20260903104333 | 78 | 262 | 7.0 | 9.0 | 0.00 | 0.00 | 0.00 | 90 | 1013.9 |
| 20260903103830 | 78 | 234 | 8.0 | 9.0 | 0.00 | 0.00 | 0.00 | 90 | 1013.9 |
| 20260903103326 | 78 | 240 | 11.0 | 14.0 | 0.00 | 0.00 | 0.00 | 90 | 1013.9 |
| 20260903102821 | 78 | 215 | 7.0 | 9.0 | 0.00 | 0.00 | 0.00 | 90 | 1014.1 |
| 20260903102316 | 78 | 203 | 10.0 | 13.0 | 0.00 | 0.00 | 0.00 | 90 | 1013.8 |
| 20260903101815 | 78 | 219 | 10.0 | 13.0 | 0.00 | 0.00 | 0.00 | 90 | 1013.9 |
| 20260903101310 | 78 | 205 | 11.0 | 15.0 | 0.00 | 0.00 | 0.00 | 90 | 1013.6 |
| 20260903100806 | 78 | 225 | 8.0 | 10.0 | 0.00 | 0.00 | 0.00 | 90 | 1013.7 |
| 20260903100300 | 78 | 221 | 7.0 | 10.0 | 0.00 | 0.00 | 0.00 | 89 | 1013.6 |
| 20260903095757 | 78 | 216 | 9.0 | 9.0 | 0.00 | 0.00 | 0.00 | 89 | 1013.9 |
| 20260903095252 | 78 | 226 | 7.0 | 7.0 | 0.00 | 0.00 | 0.00 | 89 | 1013.7 |
| 20260903094747 | 78 | 188 | 10.0 | 10.0 | 0.00 | 0.00 | 0.00 | 89 | 1014.0 |
| 20260903094242 | 78 | 230 | 9.0 | 10.0 | 0.00 | 0.00 | 0.00 | 89 | 1013.8 |
| 20260903093737 | 78 | 185 | 6.0 | 7.0 | 0.00 | 0.00 | 0.00 | 89 | 1014.1 |
| 20260903093233 | 78 | 218 | 7.0 | 9.0 | 0.00 | 0.00 | 0.00 | 89 | 1014.0 |
| 20260903092732 | 78 | 205 | 9.0 | 10.0 | 0.00 | 0.00 | 0.00 | 88 | 1014.0 |
| 20260903092227 | 78 | 222 | 7.0 | 9.0 | 0.00 | 0.00 | 0.00 | 88 | 1014.1 |
| 20260903091726 | 78 | 191 | 6.0 | 7.0 | 0.00 | 0.00 | 0.00 | 88 | 1013.9 |
| 20260903091221 | 78 | 238 | 9.0 | 13.0 | 0.00 | 0.00 | 0.00 | 88 | 1014.0 |
| 20260903090716 | 79 | 212 | 8.0 | 10.0 | 0.00 | 0.00 | 0.00 | 88 | 1014.2 |
| 20260903090214 | 79 | 236 | 10.0 | 14.0 | 0.00 | 0.00 | 0.00 | 88 | 1014.1 |
| 20260903085713 | 79 | 240 | 9.0 | 13.0 | 0.00 | 0.00 | 0.00 | 87 | 1014.4 |
| 20260903085208 | 79 | 199 | 9.0 | 11.0 | 0.00 | 0.00 | 0.00 | 87 | 1014.2 |
| 20260903084706 | 79 | 200 | 9.0 | 10.0 | 0.00 | 0.00 | 0.00 | 87 | 1014.1 |
| 20260903084201 | 79 | 207 | 7.0 | 8.0 | 0.00 | 0.00 | 0.00 | 87 | 1014.3 |
| 20260903083657 | 79 | 231 | 8.0 | 9.0 | 0.00 | 0.00 | 0.00 | 87 | 1014.2 |
| 20260903083151 | 79 | 229 | 10.0 | 13.0 | 0.00 | 0.00 | 0.00 | 87 | 1014.3 |
| 20260903082646 | 79 | 150 | 7.0 | 8.0 | 0.00 | 0.00 | 0.00 | 86 | 1014.1 |
| 20260903082141 | 79 | 198 | 11.0 | 15.0 | 0.00 | 0.00 | 0.00 | 86 | 1014.2 |
| 20260903081636 | 79 | 246 | 7.0 | 8.0 | 0.00 | 0.00 | 0.00 | 86 | 1014.2 |
| 20260903081132 | 79 | 224 | 12.0 | 14.0 | 0.00 | 0.00 | 0.00 | 85 | 1014.1 |
| 20260903080628 | 79 | 184 | 11.0 | 14.0 | 0.00 | 0.00 | 0.00 | 85 | 1014.1 |
| 20260903080125 | 79 | 221 | 9.0 | 10.0 | 0.00 | 0.00 | 0.00 | 84 | 1014.2 |
| 20260903075618 | 79 | 244 | 12.0 | 17.0 | 0.00 | 0.00 | 0.00 | 84 | 1014.1 |
| 20260903075114 | 80 | 221 | 8.0 | 9.0 | 0.00 | 0.00 | 0.00 | 83 | 1014.1 |
| 20260903074613 | 80 | 206 | 9.0 | 11.0 | 0.00 | 0.00 | 0.00 | 83 | 1014.2 |
| 20260903074108 | 80 | 220 | 7.0 | 10.0 | 0.00 | 0.00 | 0.00 | 82 | 1014.2 |
| 20260903073604 | 80 | 226 | 9.0 | 10.0 | 0.00 | 0.00 | 0.00 | 81 | 1014.3 |
| 20260903073059 | 80 | 197 | 9.0 | 10.0 | 0.00 | 0.00 | 0.00 | 81 | 1014.4 |
| 20260903072555 | 80 | 222 | 9.0 | 11.0 | 0.00 | 0.00 | 0.00 | 80 | 1014.3 |
| 20260903072051 | 80 | 220 | 9.0 | 10.0 | 0.00 | 0.00 | 0.00 | 80 | 1014.2 |
| 20260903071548 | 80 | 216 | 8.0 | 9.0 | 0.00 | 0.00 | 0.00 | 79 | 1014.3 |
| 20260903071047 | 81 | 212 | 10.0 | 11.0 | 0.00 | 0.00 | 0.00 | 79 | 1014.4 |
| 20260903070542 | 81 | 170 | 8.0 | 9.0 | 0.00 | 0.00 | 0.00 | 79 | 1014.2 |
| 20260903070038 | 81 | 200 | 8.0 | 10.0 | 0.00 | 0.00 | 0.00 | 78 | 1014.5 |
| 20260903065536 | 81 | 215 | 7.0 | 8.0 | 0.00 | 0.00 | 0.00 | 78 | 1014.5 |
| 20260903065031 | 81 | 209 | 11.0 | 14.0 | 0.00 | 0.00 | 0.00 | 78 | 1014.6 |
| 20260903064530 | 81 | 204 | 6.0 | 7.0 | 0.00 | 0.00 | 0.00 | 77 | 1014.5 |
| 20260903064026 | 81 | 217 | 6.0 | 7.0 | 0.00 | 0.00 | 0.00 | 76 | 1014.5 |
| 20260903063522 | 81 | 201 | 7.0 | 9.0 | 0.00 | 0.00 | 0.00 | 76 | 1014.8 |
| 20260903063017 | 81 | 225 | 11.0 | 13.0 | 0.00 | 0.00 | 0.00 | 75 | 1014.7 |
| 20260903062512 | 82 | 186 | 8.0 | 9.0 | 0.00 | 0.00 | 0.00 | 75 | 1014.7 |
| 20260903062008 | 82 | 207 | 9.0 | 10.0 | 0.00 | 0.00 | 0.00 | 74 | 1014.9 |
| 20260903061503 | 82 | 249 | 7.0 | 9.0 | 0.00 | 0.00 | 0.00 | 73 | 1014.7 |
| 20260903060957 | 82 | 246 | 5.0 | 7.0 | 0.00 | 0.00 | 0.00 | 72 | 1014.7 |
| 20260903060452 | 82 | 220 | 12.0 | 13.0 | 0.00 | 0.00 | 0.00 | 72 | 1014.9 |
| 20260903055950 | 82 | 206 | 7.0 | 10.0 | 0.00 | 0.00 | 0.00 | 71 | 1014.7 |
| 20260903055448 | 82 | 197 | 5.0 | 8.0 | 0.00 | 0.00 | 0.00 | 71 | 1014.7 |
| 20260903054943 | 82 | 236 | 7.0 | 8.0 | 0.00 | 0.00 | 0.00 | 71 | 1014.7 |
| 20260903054437 | 82 | 252 | 4.0 | 6.0 | 0.00 | 0.00 | 0.00 | 71 | 1014.7 |
| 20260903053934 | 82 | 193 | 8.0 | 9.0 | 0.00 | 0.00 | 0.00 | 71 | 1014.4 |
| 20260903053433 | 82 | 213 | 7.0 | 8.0 | 0.00 | 0.00 | 0.00 | 71 | 1014.6 |
| 20260903052931 | 82 | 259 | 6.0 | 7.0 | 0.00 | 0.00 | 0.00 | 71 | 1014.6 |
| 20260903052425 | 82 | 175 | 6.0 | 7.0 | 0.00 | 0.00 | 0.00 | 71 | 1014.7 |
| 20260903051921 | 82 | 154 | 12.0 | 15.0 | 0.00 | 0.00 | 0.00 | 71 | 1014.5 |
| 20260903051416 | 81 | 179 | 7.0 | 7.0 | 0.00 | 0.00 | 0.00 | 73 | 1014.4 |
| 20260903050912 | 81 | 198 | 4.0 | 5.0 | 0.00 | 0.00 | 0.00 | 76 | 1014.2 |
| 20260903050410 | 80 | 203 | 5.0 | 7.0 | 0.00 | 0.00 | 0.00 | 77 | 1014.5 |
| 20260903045905 | 80 | 156 | 5.0 | 7.0 | 0.00 | 0.00 | 0.00 | 77 | 1014.3 |
| 20260903045400 | 80 | 168 | 4.0 | 5.0 | 0.00 | 0.00 | 0.00 | 77 | 1014.5 |
| 20260903044852 | 80 | 100 | 9.0 | 10.0 | 0.00 | 0.00 | 0.00 | 77 | 1014.4 |
| 20260903044352 | 81 | 130 | 6.0 | 8.0 | 0.00 | 0.00 | 0.00 | 77 | 1014.4 |
| 20260903043848 | 81 | 94 | 2.0 | 2.0 | 0.00 | 0.00 | 0.00 | 76 | 1014.3 |
| 20260903043343 | 81 | 145 | 3.0 | 3.0 | 0.00 | 0.00 | 0.00 | 75 | 1014.6 |
| 20260903042842 | 81 | 87 | 2.0 | 3.0 | 0.00 | 0.00 | 0.00 | 75 | 1014.4 |
| 20260903042337 | 81 | 122 | 5.0 | 7.0 | 0.00 | 0.00 | 0.00 | 74 | 1014.5 |
| 20260903041833 | 81 | 135 | 5.0 | 8.0 | 0.00 | 0.00 | 0.00 | 74 | 1014.4 |
| 20260903041329 | 82 | 97 | 9.0 | 13.0 | 0.00 | 0.00 | 0.00 | 73 | 1014.4 |
| 20260903040825 | 82 | 91 | 7.0 | 10.0 | 0.00 | 0.00 | 0.00 | 71 | 1014.5 |
| 20260903040324 | 82 | 65 | 4.0 | 5.0 | 0.00 | 0.00 | 0.00 | 70 | 1014.4 |
| 20260903035820 | 83 | 128 | 8.0 | 10.0 | 0.00 | 0.00 | 0.00 | 69 | 1014.4 |
| 20260903035315 | 84 | 111 | 3.0 | 6.0 | 0.00 | 0.00 | 0.00 | 68 | 1014.5 |
| 20260903034810 | 84 | 115 | 17.0 | 22.0 | 0.00 | 0.00 | 0.00 | 65 | 1014.4 |
| 20260903034305 | 85 | 172 | 6.0 | 9.0 | 0.00 | 0.00 | 0.00 | 63 | 1014.4 |
| 20260903033801 | 86 | 94 | 6.0 | 9.0 | 0.00 | 0.00 | 0.00 | 61 | 1014.0 |
| 20260903033255 | 86 | 139 | 6.0 | 8.0 | 0.00 | 0.00 | 0.00 | 61 | 1014.2 |
| 20260903032750 | 87 | 115 | 9.0 | 10.0 | 0.00 | 0.00 | 0.00 | 60 | 1014.1 |
| 20260903032246 | 87 | 101 | 5.0 | 8.0 | 0.00 | 0.00 | 0.00 | 60 | 1014.2 |
| 20260903031741 | 88 | 104 | 3.0 | 7.0 | 0.00 | 0.00 | 0.00 | 59 | 1014.1 |
| 20260903031235 | 88 | 127 | 2.0 | 3.0 | 0.00 | 0.00 | 0.00 | 58 | 1013.9 |
| 20260903030731 | 88 | 117 | 4.0 | 5.0 | 0.00 | 0.00 | 0.00 | 57 | 1013.8 |
| 20260903030227 | 88 | 121 | 3.0 | 3.0 | 0.00 | 0.00 | 0.00 | 58 | 1013.6 |
| 20260903025722 | 88 | 120 | 3.0 | 3.0 | 0.00 | 0.00 | 0.00 | 57 | 1013.5 |
| 20260903025218 | 88 | 352 | 1.0 | 2.0 | 0.00 | 0.00 | 0.00 | 58 | 1013.6 |
| 20260903024717 | 88 | 319 | 1.0 | 1.0 | 0.00 | 0.00 | 0.00 | 58 | 1013.5 |
| 20260903024216 | 88 | 56 | 2.0 | 2.0 | 0.00 | 0.00 | 0.00 | 58 | 1013.3 |
| 20260903023713 | 88 | 63 | 3.0 | 5.0 | 0.00 | 0.00 | 0.00 | 57 | 1013.5 |
| 20260903023208 | 89 | 101 | 4.0 | 6.0 | 0.00 | 0.00 | 0.00 | 57 | 1013.2 |
| 20260903022708 | 89 | 55 | 1.0 | 2.0 | 0.00 | 0.00 | 0.00 | 57 | 1013.0 |
| 20260903022206 | 89 | 87 | 3.0 | 3.0 | 0.00 | 0.00 | 0.00 | 56 | 1013.2 |
| 20260903021701 | 89 | 307 | 2.0 | 3.0 | 0.00 | 0.00 | 0.00 | 56 | 1013.2 |
| 20260903021156 | 89 | 357 | 1.0 | 2.0 | 0.00 | 0.00 | 0.00 | 56 | 1012.6 |
| 20260903020651 | 89 | 120 | 3.0 | 3.0 | 0.00 | 0.00 | 0.00 | 55 | 1012.6 |
| 20260903020151 | 89 | 12 | 3.0 | 5.0 | 0.00 | 0.00 | 0.00 | 55 | 1012.6 |
| 20260903015646 | 89 | 94 | 2.0 | 2.0 | 0.00 | 0.00 | 0.00 | 55 | 1012.6 |
| 20260903015142 | 90 | 0 | 2.0 | 2.0 | 0.00 | 0.00 | 0.00 | 54 | 1012.6 |
| 20260903014636 | 90 | 146 | 3.0 | 5.0 | 0.00 | 0.00 | 0.00 | 53 | 1012.6 |
| 20260903014135 | 91 | 327 | 1.0 | 1.0 | 0.00 | 0.00 | 0.00 | 53 | 1012.6 |
| 20260903013630 | 91 | 355 | 1.0 | 2.0 | 0.00 | 0.00 | 0.00 | 53 | 1012.4 |
| 20260903013125 | 91 | 330 | 0.0 | 0.0 | 0.00 | 0.00 | 0.00 | 52 | 1012.2 |
| 20260903012624 | 91 | 342 | 1.0 | 1.0 | 0.00 | 0.00 | 0.00 | 52 | 1012.2 |
| 20260903012123 | 91 | 16 | 1.0 | 2.0 | 0.00 | 0.00 | 0.00 | 52 | 1012.5 |
| 20260903011622 | 91 | 79 | 2.0 | 2.0 | 0.00 | 0.00 | 0.00 | 52 | 1012.3 |
| 20260903011117 | 91 | 159 | 2.0 | 2.0 | 0.00 | 0.00 | 0.00 | 52 | 1012.3 |
| 20260903010613 | 91 | 327 | 1.0 | 1.0 | 0.00 | 0.00 | 0.00 | 52 | 1012.3 |
| 20260903010111 | 91 | 318 | 1.0 | 2.0 | 0.00 | 0.00 | 0.00 | 52 | 1012.3 |
| 20260903005606 | 91 | 106 | 4.0 | 5.0 | 0.00 | 0.00 | 0.00 | 52 | 1012.3 |
| 20260903005102 | 92 | 321 | 0.0 | 0.0 | 0.00 | 0.00 | 0.00 | 51 | 1012.4 |
| 20260903004601 | 92 | 111 | 3.0 | 5.0 | 0.00 | 0.00 | 0.00 | 50 | 1012.4 |
| 20260903004057 | 92 | 143 | 2.0 | 3.0 | 0.00 | 0.00 | 0.00 | 49 | 1012.4 |
| 20260903003552 | 93 | 137 | 3.0 | 5.0 | 0.00 | 0.00 | 0.00 | 49 | 1012.4 |
| 20260903003047 | 93 | 120 | 3.0 | 5.0 | 0.00 | 0.00 | 0.00 | 48 | 1012.6 |
| 20260903002542 | 93 | 139 | 4.0 | 5.0 | 0.00 | 0.00 | 0.00 | 48 | 1012.5 |
| 20260903002037 | 93 | 84 | 5.0 | 6.0 | 0.00 | 0.00 | 0.00 | 48 | 1012.4 |
| 20260903001532 | 93 | 156 | 4.0 | 5.0 | 0.00 | 0.00 | 0.00 | 48 | 1012.4 |
| 20260903001031 | 94 | 5 | 1.0 | 2.0 | 0.00 | 0.00 | 0.00 | 45 | 1012.1 |
| 20260903000527 | 94 | 100 | 3.0 | 3.0 | 0.00 | 0.00 | 0.00 | 45 | 1012.3 |
| 20260903000026 | 94 | 350 | 1.0 | 1.0 | 0.00 | 0.00 | 0.00 | 46 | 1012.3 |
| 20260902235520 | 94 | 356 | 2.0 | 2.0 | 0.00 | 0.00 | 0.00 | 45 | 1012.4 |
| 20260902235015 | 94 | 329 | 1.0 | 2.0 | 0.00 | 0.00 | 0.00 | 45 | 1012.4 |
| 20260902234509 | 94 | 57 | 1.0 | 3.0 | 0.00 | 0.00 | 0.00 | 46 | 1012.4 |
| 20260902234008 | 94 | 23 | 3.0 | 3.0 | 0.00 | 0.00 | 0.00 | 45 | 1012.2 |
| 20260902233502 | 94 | 99 | 4.0 | 5.0 | 0.00 | 0.00 | 0.00 | 46 | 1012.3 |
| 20260902232956 | 94 | 340 | 3.0 | 3.0 | 0.00 | 0.00 | 0.00 | 47 | 1012.1 |
| 20260902232450 | 93 | 61 | 5.0 | 8.0 | 0.00 | 0.00 | 0.00 | 47 | 1012.6 |
| 20260902231944 | 94 | 101 | 7.0 | 10.0 | 0.00 | 0.00 | 0.00 | 47 | 1012.4 |
| 20260902231439 | 94 | 60 | 5.0 | 8.0 | 0.00 | 0.00 | 0.00 | 46 | 1012.5 |
| 20260902230934 | 97 | 346 | 1.0 | 2.0 | 0.00 | 0.00 | 0.00 | 40 | 1012.2 |
| 20260902230433 | 97 | 310 | 2.0 | 2.0 | 0.00 | 0.00 | 0.00 | 41 | 1012.2 |
| 20260902225927 | 98 | 296 | 1.0 | 1.0 | 0.00 | 0.00 | 0.00 | 40 | 1012.0 |
| 20260902225417 | 96 | 308 | 1.0 | 2.0 | 0.00 | 0.00 | 0.00 | 42 | 1012.4 |
| 20260902224915 | 96 | 297 | 1.0 | 1.0 | 0.00 | 0.00 | 0.00 | 42 | 1012.2 |
| 20260902224409 | 98 | 298 | 3.0 | 5.0 | 0.00 | 0.00 | 0.00 | 41 | 1012.3 |
| 20260902223906 | 100 | 305 | 1.0 | 2.0 | 0.00 | 0.00 | 0.00 | 38 | 1012.1 |
| 20260902223407 | 99 | 283 | 1.0 | 2.0 | 0.00 | 0.00 | 0.00 | 39 | 1012.2 |
| 20260902222901 | 98 | 280 | 2.0 | 2.0 | 0.00 | 0.00 | 0.00 | 39 | 1012.1 |
| 20260902222400 | 97 | 299 | 1.0 | 2.0 | 0.00 | 0.00 | 0.00 | 41 | 1012.5 |
| 20260902221900 | 98 | 280 | 1.0 | 1.0 | 0.00 | 0.00 | 0.00 | 40 | 1012.3 |
| 20260902221359 | 98 | 280 | 2.0 | 2.0 | 0.00 | 0.00 | 0.00 | 40 | 1012.3 |
| 20260902220855 | 99 | 303 | 2.0 | 2.0 | 0.00 | 0.00 | 0.00 | 39 | 1012.4 |
| 20260902220354 | 99 | 299 | 1.0 | 1.0 | 0.00 | 0.00 | 0.00 | 39 | 1012.3 |
| 20260902215849 | 98 | 212 | 5.0 | 6.0 | 0.00 | 0.00 | 0.00 | 40 | 1012.3 |
| 20260902215344 | 98 | 222 | 6.0 | 7.0 | 0.00 | 0.00 | 0.00 | 39 | 1012.5 |
| 20260902214840 | 97 | 189 | 5.0 | 6.0 | 0.00 | 0.00 | 0.00 | 40 | 1012.4 |
| 20260902214339 | 98 | 206 | 7.0 | 9.0 | 0.00 | 0.00 | 0.00 | 40 | 1012.9 |
| 20260902213834 | 98 | 202 | 4.0 | 5.0 | 0.00 | 0.00 | 0.00 | 40 | 1012.6 |
| 20260902213330 | 98 | 209 | 2.0 | 3.0 | 0.00 | 0.00 | 0.00 | 40 | 1012.6 |
| 20260902212828 | 98 | 212 | 3.0 | 3.0 | 0.00 | 0.00 | 0.00 | 40 | 1012.6 |
| 20260902212325 | 96 | 286 | 2.0 | 2.0 | 0.00 | 0.00 | 0.00 | 41 | 1012.7 |
| 20260902211822 | 96 | 234 | 3.0 | 3.0 | 0.00 | 0.00 | 0.00 | 43 | 1012.7 |
| 20260902211317 | 96 | 209 | 4.0 | 5.0 | 0.00 | 0.00 | 0.00 | 42 | 1012.9 |
| 20260902210812 | 97 | 268 | 5.0 | 6.0 | 0.00 | 0.00 | 0.00 | 42 | 1012.6 |
| 20260902210306 | 97 | 200 | 6.0 | 7.0 | 0.00 | 0.00 | 0.00 | 41 | 1012.9 |